Wind_Speed
10 11 12 12 13 14 14 13 13 12 11 10 8 5 2 1 2 4 5 5 5 5 5 6 6 5 5 6 8 7 8 8 7 7 7 7 7 8 8 3 10 18 14 17 19 18 17
10 10 11 11 12 12 13 13 12 12 11 10 8 6 4 3 3 4 5 6 7 8 8 7 7 7 7 9 8 8 9 9 9 9 9 9 9 11 12 13 15 15 20 20 22 22 21
11 12 11 11 11 11 11 11 11 11 10 10 8 7 6 5 4 5 6 7 8 9 10 10 10 10 9 10 10 10 10 12 12 12 12 13 12 12 15 14 17 15 19 19 20 19 22
9 10 12 12 11 11 11 10 10 10 10 9 9 9 8 7 5 5 6 7 8 9 10 11 11 11 11 10 12 12 13 14 15 15 15 14 15 16 18 18 19 21 22 22 18 14 19
10 10 10 11 12 12 12 11 10 10 10 10 9 9 9 9 8 7 7 8 9 10 11 12 13 13 14 10 11 14 15 17 17 17 16 17 18 18 20 18 19 17 18 17 19 19 21
11 11 11 11 10 11 11 12 11 10 10 10 11 10 10 11 11 11 10 11 11 12 12 13 15 14 12 12 12 14 14 15 18 19 19 19 19 21 23 20 20 11 18 19 20 18 22
11 12 13 13 13 12 12 12 12 12 12 11 11 12 11 11 12 13 13 14 15 16 15 14 16 18 21 18 20 19 18 18 20 20 21 19 23 28 23 22 22 22 26 26 27 24 29
12 13 13 14 14 15 15 15 14 14 14 13 13 13 13 12 13 13 14 15 17 19 25 18 19 24 25 23 26 25 22 22 22 23 18 23 33 26 24 21 23 27 26 31 29 23 26
14 15 16 16 16 16 16 16 17 17 17 17 15 15 15 15 14 15 15 16 17 20 25 28 21 22 26 27 29 30 26 24 27 26 25 28 31 15 14 17 25 28 33 34 29 24 30
15 16 18 19 19 19 19 19 19 19 19 20 19 18 17 18 17 16 16 16 17 20 20 17 15 13 14 18 23 25 24 26 28 29 26 23 29 27 31 32 28 28 24 21 25 24 17
17 18 19 20 21 22 22 22 22 22 22 22 22 21 20 19 19 19 19 18 17 16 5 8 9 11 11 11 11 11 10 20 24 27 21 21 17 16 20 23 19 26 23 21 22 26 26
18 18 19 20 21 22 22 23 23 23 22 22 23 23 21 21 20 19 18 17 16 6 7 8 11 13 14 13 15 16 15 16 17 21 28 30 27 28 24 22 21 24 21 23 23 21 9
17 19 19 19 20 20 21 22 22 22 21 20 20 20 21 20 20 18 16 14 7 7 3 7 12 12 13 15 17 16 17 20 18 13 20 21 26 27 32 32 31 30 19 4 4 4 9
19 21 23 22 22 23 24 25 24 23 22 22 21 20 18 18 17 15 13 10 8 7 12 15 17 21 22 15 19 20 23 25 26 23 27 18 15 19 28 28 22 18 23 12 6 5 4
21 20 19 19 19 19 18 17 17 19 19 17 18 17 17 15 14 12 11 10 6 7 10 21 23 23 23 18 22 19 20 25 23 16 27 11 15 21 24 23 20 18 21 26 25 28 11
18 17 16 13 11 10 10 11 13 15 15 14 14 13 10 10 11 10 11 11 8 14 19 19 15 12 20 20 20 14 14 10 14 16 25 28 28 28 30 29 26 25 15 11 13 4 6
11 9 9 10 12 12 11 11 12 13 15 15 15 12 11 10 7 7 8 10 16 19 24 19 17 26 27 26 28 33 32 28 20 19 21 27 21 31 24 32 26 22 28 25 19 23 7
9 11 12 12 12 12 12 11 12 14 16 16 15 13 13 12 6 3 6 15 20 25 28 28 29 27 29 28 34 34 31 27 30 25 23 16 15 26 29 33 30 30 35 34 29 22 21
10 10 9 10 12 13 14 16 18 19 20 21 20 14 16 13 4 6 13 17 22 27 29 29 25 29 33 34 29 19 22 22 31 33 15 22 17 19 28 30 31 41 30 26 25 29 32
8 9 10 12 13 14 16 17 19 21 22 23 22 15 16 13 14 13 18 16 14 17 23 21 23 26 29 31 27 18 23 26 31 31 31 24 16 18 9 9 15 16 17 24 23 15 19
8 9 11 13 14 15 17 19 21 22 24 24 23 18 17 15 12 14 16 17 17 18 23 22 14 9 21 25 29 27 15 24 31 33 32 26 22 29 35 29 33 24 28 30 21 14 6
9 11 12 13 14 16 18 20 22 25 27 25 22 19 18 13 14 14 11 11 19 22 25 25 23 27 26 23 19 30 31 27 29 20 14 16 16 23 36 37 21 18 12 11 13 9 3
12 13 15 17 18 19 21 22 23 24 26 27 24 22 20 17 15 12 13 17 21 23 20 14 22 27 29 28 34 35 30 29 32 30 22 22 22 16 21 19 14 7 14 12 6 8 8
13 15 17 19 21 23 24 23 22 23 25 26 25 24 23 18 17 18 17 18 20 21 23 25 23 24 25 29 31 32 29 16 16 20 19 19 16 17 19 19 4 9 11 8 3 3 6
17 19 20 22 23 22 21 21 24 27 27 25 24 24 22 20 19 15 19 21 20 18 19 21 14 20 24 25 21 13 13 7 6 6 9 9 8 9 6 6 9 3 8 11 6 9 9
19 21 22 22 23 24 23 23 24 25 26 26 25 25 24 22 21 19 16 17 22 22 17 10 9 14 11 10 6 6 3 5 1 5 2 8 7 6 9 4 2 6 12 13 6 7 9
21 23 24 24 23 23 24 25 24 25 26 25 23 24 24 22 21 18 18 21 14 15 18 13 19 8 8 6 10 7 4 7 4 7 10 14 13 7 7 3 0 1 17 15 3 9 19
22 23 23 23 24 24 24 25 25 25 24 24 23 22 22 21 14 16 13 10 11 16 15 18 10 10 7 6 6 5 6 6 7 8 8 7 7 6 6 3 2 12 13 10 12 13 17
23 23 23 24 25 26 26 25 25 25 25 21 22 21 19 17 14 9 12 12 14 10 11 12 11 9 8 7 7 7 11 7 9 5 10 4 7 7 5 6 18 19 19 14 14 14 16
Wind_Direction
0 9 15 17 22 22 26 29 34 37 39 38 38 35 26 278 251 254 259 268 266 265 263 261 262 263 264 259 253 259 270 267 251 249 246 246 248 250 257 269 276 281 286 275 287 290 286
344 355 1 6 10 13 16 19 23 26 29 31 29 22 0 324 293 283 282 281 280 274 269 269 270 270 270 274 269 265 263 257 254 252 252 253 253 257 263 265 265 271 284 288 285 288 287
334 339 343 351 356 359 3 7 9 13 13 14 14 13 4 342 312 291 284 282 278 276 275 274 273 274 272 272 271 270 266 260 258 252 252 253 256 257 266 275 269 283 284 284 286 286 280
321 328 332 336 341 344 348 353 355 356 357 357 356 354 354 350 334 310 292 284 282 280 279 276 275 278 277 271 273 268 266 262 260 256 254 254 254 255 260 267 275 282 285 291 298 294 292
316 318 323 328 332 334 335 339 341 342 341 339 340 338 336 335 333 323 308 297 291 287 285 282 280 282 282 272 272 267 265 259 258 254 256 255 256 258 263 266 273 277 273 282 285 280 276
324 325 326 326 326 328 329 331 332 333 334 331 328 327 325 323 320 316 313 305 300 293 287 284 284 280 274 274 264 269 270 262 257 255 253 254 258 259 259 253 251 269 257 281 274 298 284
320 323 325 324 324 325 325 326 326 326 327 327 326 324 322 320 315 311 309 306 302 292 284 287 281 278 274 273 274 272 271 266 262 256 254 260 258 258 274 273 278 274 266 269 263 280 286
312 311 312 314 315 316 317 317 317 316 316 317 318 317 317 318 317 314 312 310 310 303 297 290 278 279 275 274 272 269 265 261 259 261 256 255 263 277 272 253 246 253 260 265 279 285 277
303 305 306 306 306 306 308 308 309 309 309 309 308 308 309 310 310 308 310 310 311 311 309 301 293 274 267 267 265 265 259 259 260 257 255 259 263 265 273 259 257 258 257 265 270 274 279
300 302 301 301 301 302 303 303 303 304 305 305 305 305 304 304 302 303 304 306 311 315 311 296 285 279 271 268 263 263 265 253 251 259 262 265 269 266 257 256 258 266 267 266 270 275 269
298 295 295 297 299 301 302 302 302 302 302 302 301 301 300 299 299 301 303 304 306 315 320 283 281 283 279 265 265 271 263 258 253 257 256 245 266 264 256 266 265 265 263 262 262 263 275
299 299 299 300 302 303 304 305 305 304 303 303 301 300 298 296 294 295 296 297 301 290 246 266 277 284 284 283 272 264 268 264 265 254 250 262 257 261 266 259 255 252 255 267 274 271 256
304 304 305 306 307 308 310 309 310 310 309 308 305 301 297 295 295 293 292 292 283 220 266 266 277 285 285 286 281 279 273 270 264 263 271 282 269 268 259 260 258 257 250 273 245 179 236
305 305 304 303 303 304 307 307 303 305 309 307 302 299 294 290 288 289 286 274 228 249 252 282 277 279 285 287 286 286 277 274 272 262 262 271 275 255 256 250 258 256 242 206 230 210 276
307 308 311 314 309 308 315 321 314 308 312 316 316 305 293 290 287 281 267 221 250 296 275 268 272 282 288 286 273 273 274 284 272 271 244 268 257 245 253 253 245 248 220 249 261 276 278
322 313 315 326 338 339 341 343 340 339 344 345 344 339 336 304 288 277 255 232 283 291 274 271 297 281 288 281 288 277 276 294 299 271 250 255 274 269 262 261 248 233 240 215 208 253 222
333 355 1 350 350 353 5 9 10 5 3 5 7 9 16 5 334 287 262 253 263 269 282 286 280 278 278 290 276 278 278 283 268 273 264 265 253 261 255 252 251 242 245 236 236 234 236
348 345 348 357 5 5 8 17 19 24 16 14 17 33 18 4 359 344 261 268 275 271 274 284 287 282 282 284 282 277 278 275 269 270 269 245 265 262 253 256 262 263 262 250 234 243 240
340 348 359 8 12 7 3 7 6 6 7 8 11 15 5 5 48 286 282 282 282 284 285 283 281 286 288 287 289 285 274 260 259 262 278 272 251 267 276 270 266 250 254 250 262 261 254
347 1 9 11 11 7 2 360 359 358 359 359 1 10 358 356 343 323 312 314 299 299 298 300 298 296 291 291 296 287 290 272 275 300 293 298 282 257 290 290 309 301 293 272 282 281 276
2 6 4 9 10 6 7 1 359 357 357 1 2 4 359 338 335 330 320 312 297 301 294 305 304 303 298 299 297 297 276 287 286 290 296 298 290 289 281 281 291 302 298 299 299 277 279
356 0 356 357 3 1 2 3 1 359 358 356 2 2 355 351 339 333 329 290 300 299 305 307 292 288 280 285 289 289 292 300 305 315 268 273 282 292 285 286 298 256 269 303 303 311 289
350 349 351 353 352 354 354 355 355 353 354 356 1 358 355 343 340 329 299 295 301 301 306 292 288 291 286 293 283 288 285 287 292 297 302 294 287 293 284 288 282 257 340 354 354 357 2
340 347 344 344 344 346 343 342 346 349 354 358 358 355 355 344 331 317 305 308 305 304 296 301 299 298 299 292 295 294 295 298 293 278 277 262 268 266 273 307 215 122 26 16 356 6 34
341 341 340 339 336 330 327 338 346 351 351 353 353 354 352 343 329 321 316 311 309 306 304 307 311 300 302 307 307 317 325 213 233 73 52 2 346 312 288 57 136 15 343 356 321 291 311
337 336 335 331 326 325 329 344 348 348 347 347 349 351 353 347 326 321 326 327 318 327 340 318 328 328 330 354 348 278 298 321 338 348 320 336 331 237 326 301 180 81 9 359 317 259 316
338 334 330 326 327 330 340 346 347 347 345 344 347 345 345 348 338 330 325 325 331 338 338 341 343 328 349 341 305 312 326 349 330 332 326 340 356 357 340 355 128 272 351 345 321 307 318
331 328 326 329 332 339 342 344 343 342 344 339 340 342 344 345 338 334 336 333 326 332 321 319 348 319 338 316 328 326 319 326 321 320 335 335 342 337 336 284 301 314 332 339 320 318 325
331 328 331 336 340 342 342 339 340 338 337 336 331 335 341 344 337 356 350 329 323 325 332 347 344 348 356 322 312 329 315 298 315 298 317 308 318 303 298 298 302 314 320 325 328 331 326
Height
3115 3113 3110 3109 3106 3104 3102 3100 3098 3096 3094 3093 3092 3092 3092 3092 3093 3093 3093 3093 3093 3093 3094 3093 3093 3093 3093 3094 3094 3094 3095 3096 3097 3097 3098 3098 3098 3099 3099 3100 3100 3097 3099 3098 3097 3097 3096
3115 3113 3111 3109 3107 3105 3103 3101 3099 3098 3096 3095 3093 3093 3093 3092 3092 3092 3092 3092 3093 3093 3093 3092 3092 3092 3092 3092 3092 3092 3094 3094 3095 3095 3096 3096 3097 3097 3096 3097 3097 3096 3095 3095 3094 3093 3092
3115 3113 3111 3109 3108 3106 3104 3102 3100 3099 3097 3096 3095 3094 3093 3092 3092 3091 3091 3092 3092 3092 3092 3091 3090 3090 3090 3091 3090 3091 3092 3092 3093 3093 3094 3094 3094 3095 3094 3094 3093 3093 3092 3091 3090 3090 3088
3113 3112 3111 3109 3107 3106 3104 3102 3100 3099 3098 3097 3095 3094 3093 3092 3091 3091 3091 3091 3091 3090 3090 3089 3088 3087 3087 3088 3088 3089 3089 3090 3090 3091 3091 3091 3091 3092 3091 3091 3091 3091 3089 3086 3086 3085 3084
3112 3111 3109 3108 3106 3105 3103 3101 3100 3099 3097 3096 3095 3094 3093 3092 3091 3091 3090 3089 3089 3088 3088 3087 3086 3084 3084 3084 3085 3085 3086 3086 3087 3087 3087 3087 3088 3088 3088 3088 3088 3087 3084 3084 3084 3083 3081
3111 3110 3108 3107 3105 3103 3102 3101 3099 3098 3096 3095 3094 3093 3092 3091 3091 3090 3089 3088 3087 3086 3085 3084 3083 3084 3082 3082 3082 3082 3083 3083 3083 3083 3084 3084 3084 3083 3083 3084 3083 3083 3083 3082 3082 3081 3077
3110 3109 3107 3105 3104 3102 3101 3099 3098 3096 3095 3093 3093 3092 3091 3090 3088 3088 3087 3086 3087 3085 3082 3082 3081 3080 3078 3079 3078 3079 3079 3079 3079 3079 3079 3079 3078 3075 3078 3079 3078 3079 3078 3076 3077 3077 3073
3108 3106 3104 3103 3102 3100 3099 3097 3095 3094 3093 3092 3091 3090 3089 3088 3086 3085 3084 3083 3082 3081 3075 3077 3077 3074 3073 3074 3073 3073 3075 3076 3074 3074 3076 3074 3068 3075 3074 3075 3075 3074 3073 3070 3070 3071 3068
3105 3104 3102 3100 3098 3097 3095 3094 3092 3091 3090 3089 3088 3087 3086 3085 3084 3083 3081 3081 3079 3076 3073 3068 3068 3067 3067 3068 3066 3066 3069 3069 3068 3069 3069 3067 3067 3068 3069 3069 3069 3068 3067 3066 3067 3067 3061
3102 3100 3098 3096 3095 3093 3092 3090 3089 3088 3087 3085 3084 3083 3083 3082 3083 3079 3079 3078 3076 3074 3069 3064 3062 3060 3061 3061 3060 3060 3062 3064 3062 3062 3065 3061 3061 3061 3062 3061 3065 3061 3063 3063 3063 3063 3058
3099 3096 3094 3093 3091 3090 3088 3086 3085 3083 3082 3081 3079 3079 3078 3077 3077 3076 3076 3074 3073 3073 3070 3063 3060 3059 3059 3060 3059 3057 3058 3056 3057 3057 3061 3056 3056 3057 3055 3055 3059 3056 3058 3058 3058 3057 3053
3095 3093 3091 3089 3087 3085 3084 3082 3080 3078 3077 3076 3074 3073 3073 3072 3072 3071 3070 3070 3071 3073 3066 3060 3057 3057 3057 3056 3055 3055 3056 3054 3054 3053 3052 3050 3053 3051 3052 3052 3054 3051 3053 3053 3053 3052 3047
3091 3090 3087 3085 3084 3082 3080 3077 3075 3073 3072 3070 3068 3067 3066 3066 3066 3066 3065 3066 3069 3066 3062 3058 3055 3054 3053 3052 3051 3052 3051 3050 3051 3050 3047 3046 3044 3045 3046 3047 3047 3048 3049 3051 3051 3050 3038
3088 3086 3083 3081 3079 3077 3075 3072 3070 3068 3066 3064 3063 3062 3060 3059 3059 3060 3061 3063 3063 3060 3058 3054 3053 3052 3050 3052 3049 3048 3047 3044 3045 3047 3044 3041 3038 3039 3036 3038 3040 3038 3041 3042 3039 3038 3029
3084 3082 3079 3077 3074 3072 3070 3067 3065 3063 3061 3059 3056 3055 3055 3054 3054 3055 3057 3058 3058 3057 3054 3052 3050 3048 3048 3048 3047 3045 3042 3041 3042 3042 3040 3037 3031 3032 3030 3031 3035 3032 3031 3035 3033 3030 3031
3080 3078 3076 3074 3070 3069 3067 3065 3062 3060 3058 3056 3053 3051 3050 3049 3050 3051 3054 3055 3056 3051 3049 3050 3049 3048 3046 3046 3045 3043 3040 3039 3038 3037 3035 3030 3025 3026 3024 3026 3026 3027 3028 3029 3031 3030 3024
3078 3076 3074 3072 3070 3067 3065 3063 3062 3060 3057 3054 3052 3049 3048 3047 3047 3049 3051 3052 3050 3048 3046 3049 3046 3042 3041 3040 3038 3035 3032 3037 3032 3029 3028 3025 3023 3015 3020 3015 3018 3022 3020 3020 3020 3016 3012
3077 3075 3074 3071 3069 3067 3065 3063 3061 3059 3056 3053 3050 3048 3046 3045 3047 3046 3047 3046 3047 3044 3044 3043 3042 3040 3037 3035 3030 3032 3029 3028 3023 3021 3020 3019 3014 3007 3006 3011 3013 3012 3008 3010 3008 3003 3003
3077 3075 3073 3071 3069 3066 3063 3061 3059 3056 3053 3051 3048 3046 3045 3043 3044 3044 3043 3043 3041 3038 3036 3036 3036 3034 3031 3030 3029 3023 3022 3019 3018 3017 3012 3011 3006 3003 2996 3002 3004 3001 3002 2999 2996 2997 2992
3077 3075 3073 3070 3068 3065 3062 3060 3058 3055 3052 3049 3046 3044 3042 3041 3041 3040 3038 3037 3036 3034 3030 3030 3030 3028 3024 3021 3022 3016 3014 3013 3010 3009 3006 3005 3003 3000 2996 2997 2997 2994 2990 2990 2993 2991 2985
3076 3074 3072 3069 3067 3064 3062 3059 3056 3053 3050 3048 3045 3042 3041 3039 3038 3037 3035 3033 3031 3029 3027 3027 3025 3024 3020 3017 3014 3012 3009 3005 3006 3006 3003 3002 2997 2996 2991 2990 2991 2988 2985 2982 2983 2982 2982
3076 3073 3071 3069 3066 3063 3060 3057 3053 3050 3046 3045 3042 3041 3038 3036 3034 3032 3031 3029 3028 3025 3023 3022 3020 3016 3014 3013 3012 3004 3004 3003 2999 2999 2999 2997 2990 2988 2982 2985 2985 2979 2979 2978 2979 2979 2978
3075 3073 3070 3067 3064 3060 3056 3053 3050 3047 3044 3040 3037 3036 3034 3033 3030 3028 3025 3023 3022 3019 3017 3017 3013 3010 3008 3007 3001 2999 2999 2997 2994 2992 2990 2989 2987 2987 2975 2979 2979 2975 2975 2977 2978 2977 2976
3074 3071 3068 3065 3061 3058 3055 3052 3049 3045 3040 3036 3033 3032 3030 3029 3026 3023 3020 3019 3016 3014 3011 3009 3008 3004 3002 2998 2995 2992 2990 2988 2986 2987 2986 2984 2984 2984 2975 2972 2971 2981 2979 2979 2978 2977 2975
3072 3069 3065 3062 3059 3057 3055 3050 3044 3038 3035 3033 3030 3029 3027 3024 3021 3019 3017 3014 3011 3008 3007 3004 3003 3000 2995 2992 2989 2986 2984 2984 2984 2983 2983 2983 2982 2979 2976 2974 2980 2981 2978 2978 2975 2975 2972
3070 3067 3063 3061 3058 3054 3050 3045 3040 3036 3032 3030 3027 3024 3023 3021 3016 3014 3012 3010 3007 3003 3002 2999 2999 2996 2994 2991 2990 2988 2986 2985 2984 2984 2983 2982 2980 2979 2976 2974 2974 2979 2977 2975 2973 2971 2970
3067 3064 3062 3059 3056 3051 3045 3040 3038 3035 3030 3027 3025 3021 3020 3017 3012 3010 3009 3006 3005 3003 3000 2997 2995 2994 2993 2992 2990 2988 2987 2986 2985 2984 2983 2981 2979 2978 2976 2976 2976 2976 2975 2973 2974 2977 2968
3065 3063 3060 3056 3052 3047 3042 3038 3035 3032 3028 3024 3022 3019 3017 3013 3011 3008 3007 3005 3004 3003 3000 2997 2996 2993 2992 2991 2990 2989 2987 2987 2986 2985 2983 2983 2981 2979 2978 2976 2977 2975 2974 2976 2973 2968 2965
3064 3061 3057 3052 3048 3043 3039 3036 3032 3027 3024 3021 3018 3016 3014 3012 3010 3007 3005 3004 3002 3001 2999 2997 2996 2994 2993 2992 2991 2990 2988 2987 2985 2984 2982 2983 2983 2981 2982 2978 2974 2972 2971 2969 2967 2964 2961